W8WAK Weather Reports


time (UTC)temp
F
wind
direction
speed
knots
gust
knots
rain 1hr
in
rain 24hr
in
rain mn
in
humidity
%
barometer
mb
20260510202005 60 142 0.9 0.9 0.00 0.00 0.00 28 1005.0
20260510201504 60 238 2.6 2.6 0.00 0.00 0.00 29 1005.1
20260510201005 62 231 1.7 2.6 0.00 0.00 0.00 28 1005.2
20260510200505 63 275 1.7 2.6 0.00 0.00 0.00 28 1005.2
20260510200004 63 235 0.9 1.7 0.00 0.00 0.00 28 1005.1
20260510195004 62 142 1.7 1.7 0.00 0.00 0.00 28 1005.3
20260510193005 61 328 0.9 1.7 0.00 0.00 0.00 27 1005.2
20260510192005 62 266 3.5 4.3 0.00 0.00 0.00 27 1005.4
20260510191505 60 8 0.9 1.7 0.00 0.00 0.00 27 1005.2
20260510191005 60 8 1.7 1.7 0.00 0.00 0.00 29 1005.3
20260510190504 61 244 7.0 8.7 0.00 0.00 0.00 27 1005.4
20260510190005 61 254 3.5 5.2 0.00 0.00 0.00 27 1005.2
20260510185504 61 280 2.6 4.3 0.00 0.00 0.00 30 1005.4
20260510185005 60 335 4.3 5.2 0.00 0.00 0.00 28 1005.3
20260510184505 61 295 2.6 4.3 0.00 0.00 0.00 28 1005.4
20260510184004 60 326 3.5 5.2 0.00 0.00 0.00 28 1005.3
20260510183504 60 241 2.6 5.2 0.00 0.00 0.00 27 1005.2
20260510183005 60 261 6.1 7.8 0.00 0.00 0.00 27 1005.1
20260510182505 60 257 3.5 4.3 0.00 0.00 0.00 26 1005.2
20260510182004 60 282 3.5 4.3 0.00 0.00 0.00 28 1004.9
20260510181004 59 279 2.6 4.3 0.00 0.00 0.00 28 1005.3
20260510180005 60 275 2.6 4.3 0.00 0.00 0.00 28 1005.1
20260510175505 59 67 0.9 0.9 0.00 0.00 0.00 29 1005.0
20260510174504 59 227 0.9 1.7 0.00 0.00 0.00 27 1005.1
20260510174004 59 209 3.5 5.2 0.00 0.00 0.00 28 1005.0
20260510173504 59 205 0.9 1.7 0.00 0.00 0.00 28 1004.9
20260510173005 58 287 3.5 4.3 0.00 0.00 0.00 28 1004.9
20260510172504 59 293 1.7 1.7 0.00 0.00 0.00 29 1005.0
20260510172004 58 254 2.6 2.6 0.00 0.00 0.00 30 1005.0
20260510171505 58 267 0.9 0.9 0.00 0.00 0.00 29 1004.9
20260510170504 58 24 2.6 4.3 0.00 0.00 0.00 28 1005.2
20260510170005 58 293 6.1 7.0 0.00 0.00 0.00 27 1005.0
20260510165505 58 317 3.5 5.2 0.00 0.00 0.00 28 1005.3
20260510165005 59 228 1.7 2.6 0.00 0.00 0.00 27 1005.0
20260510164504 59 291 2.6 5.2 0.00 0.00 0.00 29 1005.1
20260510164004 58 351 1.7 2.6 0.00 0.00 0.00 28 1005.0
20260510163505 58 289 3.5 5.2 0.00 0.00 0.00 30 1004.9
20260510163004 59 334 1.7 1.7 0.00 0.00 0.00 30 1005.0
20260510162504 58 55 1.7 1.7 0.00 0.00 0.00 30 1005.0
20260510162005 57 287 3.5 4.3 0.00 0.00 0.00 29 1005.0
20260510161505 58 312 2.6 2.6 0.00 0.00 0.00 32 1004.7
20260510161004 57 332 2.6 2.6 0.00 0.00 0.00 32 1004.9
20260510160505 57 278 4.3 5.2 0.00 0.00 0.00 32 1004.7
20260510160004 57 241 1.7 2.6 0.00 0.00 0.00 32 1004.8
20260510155504 57 315 1.7 1.7 0.00 0.00 0.00 33 1004.8
20260510155004 57 300 5.2 6.1 0.00 0.00 0.00 30 1004.8
20260510154505 57 240 0.9 1.7 0.00 0.00 0.00 31 1004.7
20260510154004 57 289 3.5 4.3 0.00 0.00 0.00 33 1004.7
20260510153504 57 225 1.7 1.7 0.00 0.00 0.00 33 1004.6
20260510152504 56 290 0.9 1.7 0.00 0.00 0.00 35 1004.3
20260510152004 56 351 1.7 2.6 0.00 0.00 0.00 35 1004.3
20260510151005 56 264 0.9 1.7 0.00 0.00 0.00 34 1004.4
20260510150505 55 209 1.7 1.7 0.00 0.00 0.00 39 1004.2
20260510145504 55 39 1.7 1.7 0.00 0.00 0.00 38 1004.2
20260510145005 56 295 2.6 2.6 0.00 0.00 0.00 38 1004.1
20260510144505 56 220 1.7 1.7 0.00 0.00 0.00 40 1004.0
20260510144004 56 113 0.9 0.9 0.00 0.00 0.00 41 1004.2
20260510143504 54 82 0.9 0.9 0.00 0.00 0.00 40 1004.2
20260510143005 54 297 1.7 1.7 0.00 0.00 0.00 40 1004.1
20260510142504 54 86 0.0 0.0 0.00 0.00 0.00 41 1004.0
20260510142005 53 331 1.7 1.7 0.00 0.00 0.00 41 1004.2
20260510141005 53 344 2.6 2.6 0.00 0.00 0.00 41 1004.1
20260510140504 54 283 1.7 1.7 0.00 0.00 0.00 44 1004.1
20260510140005 53 134 0.9 0.9 0.00 0.00 0.00 43 1003.9
20260510135504 53 195 0.9 1.7 0.00 0.00 0.00 44 1004.0
20260510135006 53 269 0.9 0.9 0.00 0.00 0.00 44 1003.9
20260510134505 52 120 1.7 1.7 0.00 0.00 0.00 45 1003.9
20260510133504 52 179 0.0 0.0 0.00 0.00 0.00 48 1004.0
20260510133004 51 266 1.7 1.7 0.00 0.00 0.00 48 1003.8
20260510132005 51 6 1.7 1.7 0.00 0.00 0.00 47 1003.6
20260510131504 51 275 0.9 1.7 0.00 0.00 0.00 47 1003.6
20260510131005 51 37 0.9 1.7 0.00 0.00 0.00 48 1003.6
20260510130504 50 146 0.9 0.9 0.00 0.00 0.00 50 1003.6
20260510125004 49 276 0.9 1.7 0.00 0.00 0.00 55 1003.3
20260510124504 49 298 0.9 1.7 0.00 0.00 0.00 54 1003.4
20260510124005 49 306 1.7 1.7 0.00 0.00 0.00 54 1003.2
20260510123504 49 77 0.9 1.7 0.00 0.00 0.00 55 1003.1
20260510123005 49 181 0.9 0.9 0.00 0.00 0.00 57 1003.0
20260510122505 48 333 1.7 1.7 0.00 0.00 0.00 58 1003.2
20260510122005 48 285 1.7 1.7 0.00 0.00 0.00 58 1003.3
20260510121504 47 321 1.7 1.7 0.00 0.00 0.00 60 1002.8
20260510120505 46 245 0.9 1.7 0.00 0.00 0.00 62 1002.9
20260510115504 46 278 2.6 4.3 0.00 0.00 0.00 62 1002.8
20260510115005 46 253 1.7 4.3 0.00 0.00 0.00 64 1003.0
20260510114504 46 271 2.6 2.6 0.00 0.00 0.00 64 1002.7
20260510114004 45 297 2.6 2.6 0.00 0.00 0.00 66 1002.8
20260510113004 45 276 2.6 2.6 0.00 0.00 0.00 68 1002.5
20260510112505 45 204 0.9 1.7 0.00 0.00 0.00 69 1002.3
20260510112005 45 195 0.9 0.9 0.00 0.00 0.00 70 1002.3
20260510111004 44 183 0.0 0.0 0.00 0.00 0.00 74 1002.0
20260510110504 44 190 0.0 0.0 0.00 0.00 0.00 75 1002.1
20260510110005 43 287 0.0 0.0 0.00 0.00 0.00 77 1001.9
20260510105505 43 336 0.0 0.0 0.00 0.00 0.00 80 1001.9
20260510105004 42 90 0.0 0.0 0.00 0.00 0.00 82 1001.9
20260510104505 42 89 0.0 0.0 0.00 0.00 0.00 83 1001.9
20260510104004 42 89 0.0 0.0 0.00 0.00 0.00 82 1001.6
20260510103504 42 89 0.0 0.0 0.00 0.00 0.00 82 1001.7
20260510103005 42 89 0.0 0.0 0.00 0.00 0.00 82 1001.4
20260510102504 42 89 0.0 0.0 0.00 0.00 0.00 81 1001.4
20260510102005 42 89 0.0 0.0 0.00 0.00 0.00 81 1001.4
20260510101504 42 89 0.0 0.0 0.00 0.00 0.00 80 1001.3
20260510101004 43 89 0.0 0.0 0.00 0.00 0.00 80 1001.2
20260510100504 42 89 0.0 0.0 0.00 0.00 0.00 80 1001.3
20260510100005 42 89 0.0 0.0 0.00 0.00 0.00 79 1001.5
20260510095004 43 89 0.0 0.0 0.00 0.00 0.00 79 1001.2
20260510094505 43 89 0.0 0.0 0.00 0.00 0.00 78 1001.1
20260510094005 43 89 0.0 0.0 0.00 0.00 0.00 78 1001.2
20260510093504 43 89 0.0 0.0 0.00 0.00 0.00 77 1001.0
20260510092504 43 89 0.0 0.0 0.00 0.00 0.00 76 1000.7
20260510092005 44 89 0.0 0.0 0.00 0.00 0.00 75 1000.8
20260510091004 44 89 0.0 0.0 0.00 0.00 0.00 75 1000.8
20260510090004 45 89 0.0 0.0 0.00 0.00 0.00 74 1000.3
20260510085505 45 89 0.0 0.0 0.00 0.00 0.00 73 1000.5
20260510085004 45 88 0.0 0.0 0.00 0.00 0.00 73 1000.1
20260510084005 46 94 0.0 0.0 0.00 0.00 0.00 72 1000.1
20260510083505 46 93 0.0 0.0 0.00 0.00 0.00 72 999.9
20260510083005 46 98 0.0 0.0 0.00 0.00 0.00 72 999.6
20260510082504 46 97 0.0 0.0 0.00 0.00 0.00 71 999.5
20260510081504 47 110 0.0 0.0 0.00 0.00 0.00 71 999.3
20260510081005 47 97 0.9 0.9 0.00 0.00 0.00 71 999.3
20260510080504 47 121 0.0 0.0 0.00 0.00 0.00 72 999.2
20260510075504 48 108 0.0 0.0 0.00 0.00 0.00 71 998.9
20260510075004 48 73 0.9 0.9 0.00 0.00 0.00 71 998.8
20260510074505 48 115 0.0 0.0 0.00 0.00 0.00 70 998.8
20260510074004 49 118 0.9 0.9 0.00 0.00 0.00 69 998.4
20260510073004 49 74 0.9 1.7 0.00 0.00 0.00 66 998.1
20260510072505 50 110 0.0 0.9 0.00 0.00 0.00 63 998.0
20260510072004 50 110 0.0 0.0 0.00 0.00 0.00 61 998.1
20260510071505 50 142 0.0 0.0 0.00 0.00 0.00 60 997.9
20260510070504 50 19 0.9 0.9 0.00 0.00 0.00 61 997.8
20260510070005 50 178 0.0 0.0 0.00 0.00 0.00 62 997.6
20260510065504 50 195 0.0 0.9 0.00 0.00 0.00 62 997.8
20260510065004 50 172 0.0 0.0 0.00 0.00 0.00 62 997.7
20260510064504 50 176 0.9 0.9 0.00 0.00 0.00 61 997.7
20260510064005 51 237 1.7 1.7 0.00 0.00 0.00 61 997.6
20260510063504 51 151 0.0 0.0 0.00 0.00 0.00 61 997.6
20260510063004 51 66 0.0 0.0 0.00 0.00 0.00 61 997.5
20260510062505 51 181 0.9 0.9 0.00 0.00 0.00 60 997.6
20260510062004 51 185 0.0 0.0 0.00 0.00 0.00 60 997.5
20260510061505 51 123 0.0 0.0 0.00 0.00 0.00 60 997.6
20260510060504 51 170 0.9 0.9 0.00 0.00 0.00 59 997.4
20260510060006 52 102 0.0 0.0 0.00 0.00 0.00 59 997.1
20260510055504 52 100 0.0 0.9 0.00 0.00 0.00 59 997.4
20260510054504 53 171 0.0 0.0 0.00 0.00 0.00 58 997.3
20260510054005 52 94 0.9 0.9 0.00 0.00 0.00 58 997.1
20260510053504 52 64 0.0 0.0 0.00 0.00 0.00 59 996.9
20260510053005 52 109 0.0 0.0 0.00 0.00 0.00 61 997.1
20260510052504 53 60 0.0 0.0 0.00 0.00 0.00 61 997.1
20260510051505 53 101 0.0 0.0 0.00 0.00 0.00 59 996.7
20260510051004 53 117 0.0 0.0 0.00 0.00 0.00 59 996.6
20260510050505 54 123 0.9 0.9 0.00 0.00 0.00 59 996.6
20260510050004 54 68 0.9 0.9 0.00 0.00 0.00 59 996.4
20260510045505 54 70 0.0 0.0 0.00 0.00 0.00 58 996.2
20260510045005 54 127 0.9 0.9 0.00 0.00 0.00 59 996.4
20260510044504 54 117 0.0 0.9 0.00 0.00 0.00 59 996.1
20260510044004 54 103 0.0 0.0 0.00 0.00 0.00 59 996.0
20260510043505 55 114 0.0 0.0 0.00 0.00 0.00 59 996.0
20260510043005 55 106 0.0 0.0 0.00 0.00 0.00 58 996.1
20260510042504 55 89 0.0 0.0 0.00 0.00 0.00 58 995.8
20260510042005 55 92 0.9 0.9 0.00 0.00 0.00 58 995.8
20260510041505 56 124 0.0 0.0 0.00 0.00 0.00 58 995.9
20260510041004 57 110 0.9 0.9 0.00 0.00 0.00 57 995.9
20260510040504 57 115 0.0 0.0 0.00 0.00 0.00 55 995.7
20260510035505 59 351 0.0 0.9 0.00 0.00 0.10 48 995.4
20260510035004 59 12 2.6 4.3 0.00 0.00 0.10 48 995.2
20260510034504 59 310 2.6 2.6 0.00 0.00 0.10 47 995.3
20260510034004 59 252 1.7 1.7 0.00 0.00 0.10 47 995.1
20260510033505 59 308 2.6 2.6 0.00 0.00 0.10 47 995.2
20260510033005 60 264 1.7 2.6 0.00 0.00 0.10 46 994.9
20260510032504 60 315 5.2 6.1 0.00 0.00 0.10 46 994.9
20260510032004 60 15 0.9 0.9 0.00 0.00 0.10 46 994.9
20260510031505 60 287 1.7 1.7 0.00 0.00 0.10 46 994.8
20260510030504 60 317 3.5 5.2 0.00 0.00 0.10 45 994.6
20260510030005 61 274 2.6 4.3 0.00 0.00 0.10 45 994.4
20260510025004 61 245 2.6 2.6 0.00 0.00 0.10 45 994.1
20260510024505 62 270 3.5 5.2 0.00 0.00 0.10 46 994.3
20260510024004 62 247 2.6 4.3 0.00 0.00 0.10 47 994.2
20260510023004 62 343 2.6 2.6 0.00 0.00 0.10 47 993.9
20260510022505 62 265 0.9 1.7 0.00 0.00 0.10 49 993.4
20260510022004 63 255 2.6 2.6 0.00 0.00 0.10 48 993.5
20260510021504 63 261 2.6 4.3 0.00 0.00 0.10 48 993.3
20260510020505 63 305 1.7 2.6 0.00 0.00 0.10 48 993.0
20260510020005 63 289 0.9 1.7 0.00 0.00 0.10 48 992.8
20260510015504 63 241 0.9 0.9 0.00 0.00 0.10 48 992.9
20260510015005 63 271 1.7 1.7 0.00 0.00 0.10 48 992.7
20260510014504 63 246 0.0 0.0 0.00 0.00 0.10 48 992.5
20260510014004 63 246 0.0 0.0 0.00 0.00 0.10 48 992.4
20260510013004 63 217 0.0 0.9 0.00 0.00 0.10 47 992.2
20260510012505 63 216 0.0 0.0 0.00 0.00 0.10 47 992.1
20260510012005 64 216 0.0 0.0 0.00 0.00 0.10 46 991.8
20260510011504 64 212 0.0 0.0 0.00 0.00 0.10 45 991.8
20260510011005 64 206 0.0 0.9 0.00 0.00 0.10 45 991.8
20260510010504 65 259 0.0 0.0 0.00 0.00 0.10 44 991.6
20260510010004 65 187 0.0 0.0 0.00 0.00 0.10 43 991.4
20260510005505 65 185 0.0 0.9 0.00 0.00 0.10 43 991.5
20260510005004 65 227 0.9 1.7 0.00 0.00 0.10 43 991.5
20260510004504 66 228 0.9 0.9 0.00 0.00 0.10 42 991.4
20260510004005 66 192 0.9 0.9 0.00 0.00 0.10 42 991.5
20260510003504 66 225 1.7 1.7 0.00 0.00 0.10 41 991.5
20260510002505 66 240 1.7 1.7 0.00 0.00 0.10 40 991.4
20260510002005 67 165 1.7 1.7 0.00 0.00 0.10 40 991.5
20260510001504 67 298 2.6 2.6 0.00 0.00 0.10 39 991.5
20260510001005 67 176 0.9 0.9 0.00 0.00 0.10 39 991.3
20260510000505 68 295 0.9 1.7 0.00 0.00 0.10 39 991.3
20260510000004 68 224 1.7 1.7 0.00 0.00 0.10 40 991.1
20260509235505 68 186 0.0 0.9 0.00 0.00 0.10 40 991.3
20260509235005 68 193 0.9 1.7 0.00 0.00 0.10 39 991.3
20260509234504 68 202 0.9 1.7 0.00 0.00 0.10 39 991.4
20260509234004 68 217 1.7 1.7 0.00 0.00 0.10 37 991.0
20260509233505 68 312 2.6 2.6 0.00 0.00 0.10 37 991.2
20260509233004 68 253 1.7 1.7 0.00 0.00 0.10 38 991.2
20260509232504 68 231 0.9 1.7 0.00 0.00 0.10 38 991.3
20260509232004 68 283 6.1 7.0 0.00 0.00 0.10 37 991.3
20260509231505 69 335 5.2 7.0 0.00 0.00 0.10 37 991.3
20260509231004 69 303 4.3 6.1 0.00 0.00 0.10 36 991.3
20260509230004 69 303 7.0 8.7 0.00 0.00 0.10 35 991.3
20260509225504 70 288 2.6 4.3 0.00 0.00 0.10 36 991.1
20260509224005 70 335 3.5 5.2 0.00 0.00 0.10 35 991.0
20260509223504 70 198 4.3 6.1 0.00 0.00 0.10 35 990.9
20260509223004 71 229 2.6 4.3 0.00 0.00 0.10 35 990.7
20260509222504 70 222 3.5 5.2 0.00 0.00 0.10 36 990.6
20260509222004 70 130 3.5 5.2 0.00 0.00 0.10 37 990.4
20260509221006 71 277 6.1 7.8 0.00 0.00 0.10 37 990.4
20260509220504 71 307 4.3 6.1 0.00 0.00 0.10 36 990.2
20260509215505 71 241 4.3 7.0 0.00 0.00 0.10 36 990.4
20260509215005 71 142 0.9 0.9 0.00 0.00 0.10 39 990.4
20260509214504 71 304 2.6 6.1 0.00 0.00 0.10 39 990.1
20260509214004 71 295 6.1 7.8 0.00 0.00 0.10 38 989.8
20260509213005 72 301 1.7 2.6 0.00 0.00 0.10 41 990.0
20260509212504 71 224 1.7 1.7 0.00 0.00 0.10 43 989.8
20260509212005 71 256 3.5 4.3 0.00 0.00 0.10 41 989.8
20260509211504 71 222 3.5 4.3 0.00 0.00 0.10 43 989.8
20260509211005 69 295 2.6 4.3 0.00 0.00 0.10 45 989.8
20260509210505 70 256 5.2 6.1 0.00 0.00 0.10 43 989.8
20260509210004 70 261 4.3 7.0 0.00 0.00 0.10 45 989.9
20260509205505 69 243 2.6 2.6 0.00 0.00 0.10 48 989.8
20260509205005 69 261 4.3 7.0 0.00 0.00 0.10 48 989.8
20260509204504 69 244 0.9 1.7 0.00 0.00 0.10 52 990.1
20260509204004 69 277 6.1 7.8 0.00 0.00 0.10 53 989.7
20260509203505 68 316 2.6 2.6 0.00 0.00 0.10 59 989.8
20260509203005 68 301 3.5 4.3 0.00 0.00 0.10 63 989.9
20260509202504 66 283 0.9 1.7 0.00 0.00 0.10 65 989.8